This is the latest recevied weather packets stored in our database for station/object KC2TER. If no packets are shown the sender has not sent any weather packets the latest 10 day(s).
| Time | Temp. | Humidity | Pressure | Rain* | Wind** | Luminosity | Snow |
|---|---|---|---|---|---|---|---|
| 1778134528 | 13.89° C | 94% | 1009.2 hPa | 0 mm | - | 0 W/m² | - |
| 1778134226 | 13.89° C | 94% | 1009.1 hPa | 0 mm | - | 0 W/m² | - |
| 1778133923 | 13.89° C | 93% | 1008.6 hPa | 0 mm | - | 0 W/m² | - |
| 1778133620 | 14.44° C | 93% | 1008.4 hPa | 0 mm | - | 0 W/m² | - |
| 1778133320 | 14.44° C | 93% | 1008.6 hPa | 0 mm | - | 0 W/m² | - |
| 1778133016 | 14.44° C | 92% | 1008.5 hPa | 0 mm | - | 0 W/m² | - |
| 1778132712 | 14.44° C | 91% | 1008 hPa | 0 mm | - | 0 W/m² | - |
| 1778132410 | 14.44° C | 91% | 1008.8 hPa | 0 mm | - | 0 W/m² | - |
| 1778132108 | 14.44° C | 91% | 1008.6 hPa | 0 mm | - | 0 W/m² | - |
| 1778131806 | 15° C | 91% | 1008.6 hPa | 0 mm | - | 0 W/m² | - |
| 1778131503 | 14.44° C | 91% | 1008.4 hPa | 0 mm | - | 0 W/m² | - |
| 1778131200 | 15° C | 91% | 1008.1 hPa | 0 mm | - | 0 W/m² | - |
| 1778130897 | 15° C | 91% | 1008.3 hPa | 0 mm | - | 0 W/m² | - |
| 1778130594 | 15° C | 91% | 1008.1 hPa | 0 mm | - | 0 W/m² | - |
| 1778130290 | 15° C | 91% | 1008.3 hPa | 0 mm | - | 0 W/m² | - |
| 1778129988 | 15° C | 92% | 1008.4 hPa | 0 mm | - | 0 W/m² | - |
| 1778129684 | 15° C | 92% | 1008.6 hPa | 0 mm | - | 0 W/m² | - |
| 1778129381 | 15° C | 93% | 1008.4 hPa | 0 mm | - | 0 W/m² | - |
| 1778129078 | 15.56° C | 94% | 1008.5 hPa | 0 mm | - | 0 W/m² | - |
| 1778128774 | 15.56° C | 93% | 1008.4 hPa | 0 mm | - | 0 W/m² | - |
| 1778128470 | 15.56° C | 94% | 1008.1 hPa | 0 mm | - | 0 W/m² | - |
| 1778128167 | 15.56° C | 94% | 1008.5 hPa | 0 mm | - | 0 W/m² | - |
| 1778127864 | 16.67° C | 94% | 1008.3 hPa | 0 mm | - | 0 W/m² | - |
| 1778127559 | 17.22° C | 94% | 1008.5 hPa | 0 mm | - | 0 W/m² | - |
| 1778127256 | 17.22° C | 93% | 1008.3 hPa | 0 mm | - | 0 W/m² | - |
* Rain latest hour (hover to see other rain measurements)
** Current wind speed in m/s (hover to see current wind gust speed)